Miscellaneous Local Product
Issued by NWS North Platte, NE

Home | Current Version | Previous Version | Text Only | Print | Product List | Glossary On
Versions: 1 2 3 4 5 6 7 8 9 10 11 12 13 14 15 16 17 18 19 20 21 22 23 24 25 26 27 28 29 30 31 32 33 34 35 36 37 38 39 40 41 42 43 44 45 46 47 48 49 50
000
AXUS43 KLBF 171410
MISLBF


WESTERN AND NORTH CENTRAL NEBRASKA HOURLY WEATHER ROUNDUP
NATIONAL WEATHER SERVICE NORTH PLATTE NE
900 AM CDT THU APR 17 2014

***STATIONS NOT REPORTING VARIABLES SUCH AS SKY/WEATHER OR
PRESSURE ARE PROVIDED BY THE NEBRASKA DEPARTMENT OF
ROADS...RAWS...AND APRS NETWORKS...AND ARE NOT UNDER
NATIONAL WEATHER SERVICE QUALITY CONTROL***

...OBSERVATIONS IN AND NEAR THE EASTERN PANHANDLE OF NEBRASKA...

CITY           SKY/WX    TMP DP  RH WIND       PRES   REMARKS
PINE RIDGE     CLOUDY    33  28  81 SE8       30.17S WCI  26
CHADRON        PTSUNNY   35  30  82 S9        30.16R WCI  28
ALLIANCE       CLOUDY    33  28  81 SE14      30.16S WCI  23
SIDNEY         FOG       32  30  92 S13       30.17R VSB 1/4 WCI  22
WHITECLAY        N/A     30  27  86 SE16        N/A  WCI  19
CRESCENT LAKE    N/A     32  29  90 SE7         N/A  WCI  26
LISCO            N/A     34  27  75 E9          N/A  WCI  26
BIG SPRINGS      N/A     32  29  88 CALM        N/A
LEWELLEN         N/A     30  27  86 E6          N/A  WCI  24
$$

...OBSERVATIONS IN SOUTHWEST NEBRASKA AND FAR NORTHEAST COLORADO...

CITY           SKY/WX    TMP DP  RH WIND       PRES   REMARKS
WRAY           CLOUDY   N/A N/A N/A E8        30.21S FOG
HOLYOKE        CLOUDY    34  32  93 S7        30.21R FOG     WCI  28
IMPERIAL       CLOUDY    31  27  85 E6        30.24R FOG     WCI  25
OGALLALA       CLOUDY    31  27  83 SE3       30.23S
NORTH PLATTE   CLOUDY    30  23  75 NE3       30.27R
MCCOOK         CLOUDY    31  25  78 E7        30.29R WCI  24
LEXINGTON      CLOUDY    30  25  79 NE6       30.31R WCI  24
PAXTON           N/A     30  26  86 CALM        N/A
SUTHERLAND       N/A     25  23  92 E5          N/A  WCI  19
MEDICINE CREEK   N/A     30  26  83 CALM        N/A
GOTHENBURG       N/A     30  25  81 CALM        N/A
CALLAWAY         N/A     27  24  86 N10         N/A  WCI  17
$$

...OBSERVATIONS IN NORTH CENTRAL NEBRASKA...

CITY           SKY/WX    TMP DP  RH WIND       PRES   REMARKS
VALENTINE      MOSUNNY   29  23  78 SE3       30.26S
THEDFORD       SUNNY     30  23  74 E5        30.26S WCI  25
AINSWORTH      SUNNY     30  24  78 NE3       30.27S
O`NEILL        SUNNY     32  23  70 N10       30.30S WCI  23
ORD            MOSUNNY   31  22  69 NE7       30.31R WCI  24
BROKEN BOW     CLOUDY    31  23  72 N7        30.28R WCI  24
BROWNLEE         N/A     29  21  72 E3          N/A
SPRINGVIEW       N/A     27  22  80 CALM        N/A
DUNNING          N/A     29  22  78 E3          N/A
BREWSTER         N/A     30  23  74 N7          N/A  WCI  23
ROSE             N/A     32  28  86 NE6         N/A  WCI  26
NEWPORT          N/A     32  26  78 S3          N/A
COMSTOCK         N/A     35  26  69 E8          N/A  WCI  29
CHAMBERS         N/A     34  20  57 N5G12       N/A  WCI  30
EWING            N/A     32  24  71 N3G12       N/A
$$

...SOME WEATHER OBSERVATIONS FROM AROUND THE REGION...

CITY           SKY/WX    TMP DP  RH WIND       PRES   REMARKS
DENVER         MOSUNNY   40  31  70 SW6       30.09R
LARAMIE        SUNNY     30  23  75 CALM      30.08R
CHEYENNE       FOG       30  30 100 SW7       30.08S VSB 1/2 WCI  23
SCOTTSBLUFF    CLOUDY    34  30  85 SE9       30.16R WCI  27
RAPID CITY     CLOUDY    32  27  80 SE18      30.15S WCI  20
PIERRE         CLOUDY    29  23  78 E6        30.29S WCI  23
WINNER         FAIR      30  24  78 CALM      30.30R
SIOUX FALLS    SUNNY     27  21  78 N12       30.31R WCI  17
OMAHA          CLOUDY    33  24  69 NW17      30.32R WCI  22
GRAND ISLAND   CLOUDY    33  24  69 N13       30.31R WCI  24
KANSAS CITY    CLOUDY    38  29  70 N15       30.27R WCI  29
WICHITA        CLOUDY    40  28  62 N13       30.26R WCI  32
HAYS           CLOUDY    34  25  69 NE9       30.30R WCI  26
LIBERAL        CLOUDY    37  32  81 NE13      30.25R WCI  29
GOODLAND       CLOUDY    31  29  92 E8        30.25R WCI  23
$$



USA.gov is the U.S. government's official web portal to all federal, state and local government web resources and services.